Skip Page Navigation
NASA JPL Caltech
NASA Logo - Jet Propulsion Laboratory + View the NASA Portal
+ Center for Near-Earth Object Studies
JPL Home Earth Solar System Stars & Galaxies Technology
JPL Solar System Dynamics
BODIES ORBITS EPHEMERIDES TOOLS PHYSICAL DATA DISCOVERY FAQ SITE MAP
JPL Small-Body Database Browser
Search: [ help ]  
2353 Alva (1975 UD)
Classification: Main-belt Asteroid          SPK-ID: 2002353
Ephemeris | Orbit Diagram | Orbital Elements | Mission Design | Physical Parameters | Discovery Circumstances | Close-Approach Data ]

[ show orbit diagram ]
Orbital Elements at Epoch 2459000.5 (2020-May-31.0) TDB
Reference: JPL 41 (heliocentric ecliptic J2000)
 Element Value Uncertainty (1-sigma)   Units 
e .1134158001433198 4.1827e-08  
a 2.80387223116275 1.1776e-08 au
q 2.485868818565791 1.1902e-07 au
i 4.796266956080681 4.4742e-06 deg
node 24.63836597868723 4.4844e-05 deg
peri 301.2152062293874 4.768e-05 deg
M 228.4984534751528 1.7776e-05 deg
tp 2459626.917837219711
(2022-Feb-16.41783722)
8.5853e-05 TDB
period 1714.887979332517
4.70
1.0803e-05
2.958e-08
d
yr
n .2099262484422581 1.3225e-09 deg/d
Q 3.121875643759708 1.3111e-08 au
  Orbit Determination Parameters
   # obs. used (total)      2915  
   data-arc span      19575 days (53.59 yr)  
   first obs. used      1966-11-12  
   last obs. used      2020-06-16  
   planetary ephem.      DE431  
   SB-pert. ephem.      SB431-N16  
   condition code      0  
   norm. resid. RMS      .43045  
   source      ORB  
   producer      Otto Matic  
   solution date      2020-Jun-23 15:44:05  

Additional Information
 Earth MOID = 1.47856 au 
 Jupiter MOID = 2.19788 au 
 T_jup = 3.309 
[ show covariance matrix ]

Ephemeris | Orbit Diagram | Orbital Elements | Mission Design | Physical Parameters | Discovery Circumstances | Close-Approach Data ]

Physical Parameter Table
Parameter Symbol Value Units Sigma Reference Notes
absolute magnitude H 11.6   n/a MPO492778  
diameter diameter 12.564 km 0.192 urn:nasa:pds:neowise_diameters_albedos::2.0[mainbelt] (http://adsabs.harvard.edu/abs/2014ApJ...791..121M)  
rotation period rot_per 62.6 h n/a LCDB (Rev. 2019-August); Warner et al., 2009 Result based on less than full coverage, so that the period may be wrong by 30 percent or so.
Published Reference List:
[Rowe, B. (2018) Minor Planet Bull. 45, 203-207.]
geometric albedo albedo 0.213   0.027 urn:nasa:pds:neowise_diameters_albedos::2.0[mainbelt] (http://adsabs.harvard.edu/abs/2012ApJ...759L...8M)  
SMASSII spectral type spec_B S   n/a EAR-A-5-DDR-TAXONOMY-V4.0 based on a high-resolution spectrum by Xu et al. (1995) or Bus and Binzel (2002)

2353 Alva (1975 UD)          Discovered 1975-Oct-27 by Wild, P. at Zimmerwald
Reference: DISCOVERY.DBLast Updated: 2003-08-29

[ show close-approach data ]
Alternate Designations
 1975 UD = 1926 GA = 1966 VG = 1970 SG1 
Ephemeris | Orbit Diagram | Orbital Elements | Mission Design | Physical Parameters | Discovery Circumstances | Close-Approach Data ]
ABOUT SSD CREDITS/AWARDS PRIVACY/COPYRIGHT GLOSSARY LINKS
FirstGov 2020-Aug-04 09:24 UT
(server date/time)  
NASA Home Page
Site Manager:   Ryan S. Park
Webmaster  Alan B. Chamberlin